Regional Weather Roundup
Issued by NWS

Home | Current Version | Previous Version | Graphics & Text | Print | Product List | Glossary On
Versions: 1 2 3 4 5 6 7 8 9 10 11 12 13 14 15 16 17 18 19 20 21 22 23 24 25 26 27 28 29 30 31 32 33 34 35 36 37 38 39 40 41 42 43 44 45 46 47 48 49 50
000
ASUS45 KBOU 010310
RWRCO

WEATHER ROUNDUP FOR COLORADO
NATIONAL WEATHER SERVICE DENVER/BOULDER CO
900 PM MDT TUE JUN 30 2015

NOTE: "FAIR" INDICATES FEW OR NO CLOUDS BELOW 12000 FEET WITH NO
SIGNIFICANT WEATHER AND/OR OBSTRUCTIONS TO VISIBILITY.

COZ001>005-013-030-031-010400-
...NORTHWEST COLORADO...

CITY           SKY/WX    TMP DP  RH WIND       PRES   REMARKS
CRAIG          CLOUDY    73  48  41 CALM      30.19S
HAYDEN         CLOUDY    72  45  37 S10       30.23R
MEEKER         CLOUDY    77  46  33 E7        30.19F
MOUNT WERNER   NOT AVBL
STEAMBOAT SPGS CLOUDY    71  47  42 S7        30.25R
WALDEN         CLOUDY    55  48  76 E9        30.40S
$$

COZ006>008-011-010400-
...WEST CENTRAL VALLEYS...

CITY           SKY/WX    TMP DP  RH WIND       PRES   REMARKS
GRAND JUNCTION CLOUDY    84  47  27 VRB3      30.04R
MONTROSE       CLOUDY    83  44  25 W5        30.13R
EAGLE          CLOUDY    72  55  56 NE5       30.24R
RIFLE          CLOUDY    85  40  20 NW8       30.10R
DELTA          CLOUDY    89  41  19 SE13      30.06R
NUCLA          CLOUDY    81  43  26 NE7       30.16S
$$

COZ017>023-064>068-010400-
...SOUTHWEST COLORADO...

CITY           SKY/WX    TMP DP  RH WIND       PRES   REMARKS
DURANGO        CLOUDY    83  46  27 SW3       30.14S
CORTEZ         CLEAR     79  52  38 CALM      30.08R
PAGOSA SPRINGS CLOUDY    73  50  44 CALM      30.26S
TELLURIDE      MOCLDY    74  33  22 N7        30.42R
WOLF CREEK PAS NOT AVBL
$$

COZ009-010-012-014-032>034-037-058>063-010400-
...CENTRAL COLORADO...

CITY           SKY/WX    TMP DP  RH WIND       PRES   REMARKS
ASPEN          CLOUDY    70  49  47 SW6       30.30R
BUENA VISTA    CLOUDY    74  41  30 NE18G24   30.32R
COPPER MTN     RAIN      54  39  58 S12G28    30.73R
BERTHOUD PASS  MOCLDY    50  41  71 W21G32    30.73S
COTTONWOOD PAS NOT AVBL
GUNNISON       CLOUDY    77  43  29 NE6       30.29R
KREMMLING      MOCLDY    72  41  33 N13G20    30.34R
LEADVILLE      CLOUDY    63  37  38 N16G26    30.50R
MONARCH PASS   CLOUDY    55  41  58 NE13      30.75F
SALIDA         CLOUDY    75  42  29 E7G16     30.34R
SUNLIGHT       MOCLDY    63  37  39 NW6       30.61R
WILKERSON PASS TSTM      52  41  66 E12       30.66R
$$

COZ069>075-010400-
...SAN LUIS VALLEY/SANGRE DE CRISTO MOUNTAINS...

CITY           SKY/WX    TMP DP  RH WIND       PRES   REMARKS
ALAMOSA        CLOUDY    73  50  44 SE6       30.23R
LA VETA PASS   PTCLDY    63  34  34 MISG      30.50S
SAGUACHE       CLOUDY    72  43  35 N7        30.28R
$$

COZ035-036-038>040-010400-
...NORTHERN COLORADO FRONT RANGE...

CITY           SKY/WX    TMP DP  RH WIND       PRES   REMARKS
DENVER INTL AP CLOUDY    82  45  27 SW14G26   30.05F
DMNS CITY PARK   N/A     76  52  43 SW2       30.10R
AURORA         MOCLDY    76  51  41 NE3       30.12F
FRONT RANGE AP CLOUDY    79  48  34 SW13      30.08F
ERIE MUNI ARPT CLOUDY    70  54  56 CALM      30.09R
BOULDER MUN AP CLOUDY    75  50  41 W7        30.10R
CENTENNIAL     CLOUDY    74  50  42 NE8       30.13F
BROOMFIELD     CLOUDY    73  52  46 W9        30.13F
FORT COLLINS   CLOUDY    73  57  56 NW14G25   30.15R
LONGMONT       CLOUDY    76  51  40 NW14G25   30.14R
$$

COZ041-046-047-076>085-087-088-010400-
...PIKES PEAK/PALMER DIVIDE AND SOUTHERN FOOTHILLS...

CITY           SKY/WX    TMP DP  RH WIND       PRES   REMARKS
COLO. SPRINGS  CLOUDY    75  55  49 N6        30.18R
A. F. ACADEMY  NOT AVBL
ELLICOTT       CLOUDY   N/A N/A N/A SE7       30.16R
FALCON         CLOUDY    73  47  38 N7        30.25R
FORT CARSON    CLOUDY    72  55  53 NW8       30.14R
LIMON          MOCLDY    73  60  63 CALM      30.09S
MONUMENT HILL  CLOUDY    68  48  49 N8        30.27R
TRINIDAD       CLEAR     75  51  43 W7        30.10R
$$

COZ042>045-048>051-090-091-010400-
...NORTHEAST COLORADO...

CITY           SKY/WX    TMP DP  RH WIND       PRES   REMARKS
GREELEY ARPT   CLOUDY    77  57  50 NW20      30.08R
AKRON          MOCLDY    75  58  55 W9        30.01R
BURLINGTON     PTCLDY    80  49  33 S10       29.98R
WRAY           MOCLDY    82  56  42 SW6       29.91S
STERLING       MOCLDY    81  55  41 W12         N/A
HOLYOKE        MOCLDY    79  59  50 CALM      29.91F
FORT MORGAN    MOCLDY    78  51  38 NW9       30.01F
$$

COZ086-089-092>099-010400-
...SOUTHEAST COLORADO...

CITY           SKY/WX    TMP DP  RH WIND       PRES   REMARKS
PUEBLO         MOCLDY    86  48  26 E6        30.02R
LA JUNTA       CLEAR     80  51  36 NE10      29.99R
LAMAR          PTCLDY    79  53  40 E5        29.94R
SPRINGFIELD      N/A     76  44  32 S10       30.02R
$$


USA.gov is the U.S. government's official web portal to all federal, state and local government web resources and services.